Lapse_Rate
6.9 6.8 6.9 6.6 6.5 6.6 6.2 6.0 5.8 5.8 5.7 5.7 5.6 5.3 5.1 4.7 4.6 4.9 5.0 5.1 5.4 5.3 5.3 5.2 5.0 5.0 5.0 5.1 5.1 5.1 5.2 5.1 5.0 5.1 5.3 5.4 5.4 5.5 5.7 5.7 5.8 5.7 5.6 5.6 5.6 5.5 5.2 5.0 4.8
6.8 6.9 6.9 6.6 6.6 6.5 6.1 6.1 5.8 5.6 5.6 5.7 5.6 5.4 5.3 5.3 5.1 5.2 5.1 5.4 5.6 5.6 5.5 5.4 5.3 5.2 5.3 5.3 5.4 5.4 5.4 5.3 5.2 5.1 5.1 5.2 5.4 5.5 5.5 5.6 5.8 5.9 5.8 5.7 5.7 5.7 5.7 5.5 5.2
6.8 6.9 6.6 6.5 6.5 6.3 6.1 6.0 5.6 5.7 5.8 5.7 5.6 5.5 5.6 5.5 5.4 5.3 5.4 5.6 5.8 5.8 5.8 5.7 5.6 5.7 5.8 5.9 5.9 5.9 5.9 5.8 5.6 5.5 5.4 5.4 5.5 5.5 5.4 5.5 5.7 5.9 5.9 5.9 5.9 5.8 5.7 5.7 5.7
6.8 6.7 6.6 6.5 6.4 6.2 6.0 5.8 5.8 5.7 5.7 5.7 5.7 5.6 5.6 5.5 5.4 5.6 5.8 6.0 6.0 6.0 6.1 6.0 6.0 6.1 6.2 6.3 6.4 6.4 6.3 6.3 6.2 6.1 5.8 5.7 5.6 5.6 5.5 5.5 5.4 5.5 5.6 5.7 5.9 5.9 5.8 5.8 5.9
6.5 6.5 6.6 6.6 6.3 6.2 6.1 5.8 5.8 5.7 5.7 5.7 5.6 5.6 5.5 5.8 5.8 5.9 6.0 6.1 6.1 6.2 6.2 6.2 6.3 6.4 6.4 6.4 6.5 6.5 6.5 6.5 6.4 6.4 6.3 6.1 6.0 5.8 5.8 5.7 5.7 5.7 5.6 5.6 5.7 5.9 5.8 5.8 5.8
6.4 6.4 6.6 6.4 6.2 6.1 6.1 6.0 5.8 5.6 5.7 5.7 5.7 5.6 5.7 6.0 6.2 6.3 6.4 6.5 6.6 6.6 6.6 6.6 6.6 6.6 6.6 6.6 6.6 6.5 6.4 6.4 6.3 6.3 6.3 6.2 6.1 6.0 5.8 5.7 5.8 5.8 5.7 5.7 5.6 5.7 5.8 5.8 5.9
6.4 6.5 6.4 6.3 6.0 6.0 5.9 5.7 5.5 5.5 5.7 5.8 5.7 5.7 6.0 6.3 6.5 6.6 6.8 6.9 6.9 6.9 6.8 6.8 6.7 6.7 6.6 6.6 6.6 6.6 6.6 6.5 6.4 6.3 6.2 6.1 6.1 6.0 5.9 5.8 5.7 5.7 5.8 5.7 5.7 5.7 5.7 5.7 5.9
6.5 6.4 6.3 6.1 5.9 5.9 5.6 5.5 5.4 5.5 5.9 5.9 5.8 6.0 6.4 6.6 6.7 6.8 7.0 7.1 7.0 6.9 6.9 6.9 6.8 6.8 6.8 6.7 6.6 6.5 6.5 6.5 6.5 6.4 6.3 6.2 6.1 6.0 5.9 5.8 5.7 5.7 5.6 5.6 5.7 5.7 5.8 5.7 5.8
6.4 6.4 6.2 6.1 5.8 5.5 5.4 5.4 5.4 5.7 5.9 6.0 6.1 6.4 6.5 6.7 6.7 6.7 6.9 6.9 6.9 7.0 7.0 7.0 7.0 6.9 6.8 6.7 6.6 6.5 6.4 6.5 6.5 6.4 6.4 6.3 6.2 6.2 6.0 5.9 5.9 5.8 5.6 5.5 5.5 5.5 5.5 5.6 5.7
6.3 6.1 5.9 5.7 5.5 5.3 5.4 5.5 5.7 5.8 5.9 6.1 6.3 6.3 6.6 6.9 7.0 6.9 6.9 7.1 7.2 7.1 7.1 7.1 7.0 7.0 6.9 6.8 6.7 6.6 6.5 6.4 6.3 6.3 6.4 6.4 6.3 6.2 6.1 6.0 6.0 6.0 5.9 5.7 5.6 5.5 5.4 5.3 5.3
6.0 5.6 5.5 5.5 5.5 5.7 5.7 5.7 5.9 6.0 6.1 6.1 6.3 6.5 6.8 7.0 7.2 7.2 7.2 7.1 7.0 7.1 7.2 7.1 7.0 7.0 6.8 6.8 6.8 6.6 6.5 6.4 6.3 6.2 6.2 6.1 6.2 6.2 6.2 6.2 6.1 6.0 6.0 5.9 5.9 5.8 5.7 5.6 5.4
5.7 5.6 5.8 5.9 5.9 5.8 5.8 5.9 6.0 6.2 6.2 6.3 6.5 6.7 6.9 7.1 7.1 7.1 7.3 7.3 7.2 7.2 7.1 7.1 7.0 6.9 6.8 6.8 6.7 6.6 6.6 6.5 6.4 6.2 6.1 6.0 6.0 5.9 6.0 6.1 6.1 6.1 6.0 5.9 5.8 5.8 5.8 5.8 5.7
5.8 5.9 5.9 5.9 5.8 5.9 6.0 6.0 6.1 6.3 6.5 6.6 6.7 6.8 7.0 7.2 7.2 7.3 7.3 7.4 7.3 7.2 7.1 7.1 7.0 6.9 6.8 6.8 6.8 6.7 6.6 6.6 6.4 6.4 6.3 6.3 6.2 6.2 6.1 5.9 5.8 5.8 5.9 5.9 5.9 5.8 5.7 5.7 5.7
6.0 5.9 5.9 5.8 5.8 6.0 6.1 6.2 6.2 6.3 6.5 6.7 6.9 7.0 7.1 7.2 7.3 7.3 7.3 7.3 7.4 7.3 7.2 7.2 7.1 7.0 6.9 6.8 6.8 6.7 6.6 6.5 6.4 6.4 6.4 6.4 6.3 6.2 6.2 6.2 6.1 6.1 6.0 5.9 5.9 5.8 5.7 5.7 5.6
6.0 6.0 6.0 6.0 6.0 6.1 6.2 6.4 6.3 6.3 6.4 6.6 6.8 7.0 7.1 7.3 7.2 7.3 7.3 7.4 7.4 7.4 7.3 7.2 7.2 7.1 7.1 7.0 6.9 6.8 6.7 6.6 6.6 6.6 6.4 6.4 6.4 6.3 6.3 6.2 6.1 6.0 6.0 6.0 6.0 6.0 6.0 5.9 5.7
6.3 6.2 6.2 6.1 6.1 6.3 6.3 6.5 6.6 6.6 6.6 6.6 6.7 6.9 7.1 7.3 7.3 7.3 7.2 7.1 7.1 7.0 7.0 7.1 7.0 7.1 7.0 6.9 6.8 6.7 6.6 6.6 6.5 6.5 6.5 6.5 6.5 6.5 6.4 6.3 6.3 6.3 6.2 6.2 6.1 6.1 6.0 6.0 6.0
6.2 6.2 6.2 6.2 6.2 6.3 6.4 6.6 6.8 6.9 6.8 6.7 6.7 6.9 7.0 7.0 7.0 7.1 7.0 6.8 6.6 6.6 6.6 6.6 6.8 6.9 6.8 6.7 6.5 6.4 6.5 6.4 6.5 6.3 6.3 6.3 6.3 6.3 6.3 6.3 6.2 6.3 6.3 6.3 6.3 6.2 6.2 6.1 6.1
6.0 6.0 6.2 6.2 6.3 6.4 6.6 6.6 6.6 7.2 7.0 6.9 6.9 6.8 6.8 6.8 6.8 6.8 6.8 6.7 6.6 6.4 6.5 6.5 6.5 6.6 6.6 6.5 6.4 6.3 6.3 6.3 6.3 6.2 6.2 6.1 6.1 6.1 6.1 6.1 6.1 6.0 6.1 6.2 6.3 6.4 6.3 6.2 6.2
6.0 6.1 6.2 6.2 6.1 6.3 6.4 6.6 6.9 7.1 7.1 6.9 6.9 6.8 6.8 6.7 6.7 6.6 6.6 6.6 6.7 6.7 6.6 6.6 6.5 6.6 6.5 6.4 6.4 6.3 6.3 6.3 6.2 6.3 6.2 6.2 6.2 6.1 6.0 6.0 6.0 5.9 5.8 5.8 5.8 5.9 6.1 6.2 6.2
5.9 5.8 5.8 5.8 5.8 5.9 6.1 6.4 6.5 6.6 6.9 7.0 6.9 6.9 6.9 6.8 6.8 6.8 6.6 6.7 6.8 6.8 6.7 6.6 6.4 6.4 6.3 6.2 6.1 6.1 6.2 6.1 6.1 6.1 6.1 6.2 6.2 6.1 6.0 5.9 5.9 5.8 5.7 5.6 5.6 5.7 5.8 6.0 5.8
5.6 5.6 5.4 5.4 5.6 5.9 6.0 6.2 6.3 6.5 6.6 6.7 6.8 6.8 6.8 6.7 6.7 6.7 6.7 6.8 6.8 6.7 6.6 6.5 6.3 6.2 6.0 5.9 5.9 6.0 6.1 6.1 5.9 5.9 6.0 6.0 6.0 6.0 6.0 5.8 5.8 5.9 5.8 5.6 5.6 5.6 5.5 5.6 5.5
5.4 5.5 5.4 5.4 5.6 5.7 5.7 6.1 6.3 6.3 6.4 6.5 6.7 6.8 6.8 6.8 6.7 6.6 6.6 6.5 6.4 6.4 6.3 6.3 6.2 6.1 6.1 6.0 5.9 5.9 5.9 5.9 5.8 5.8 5.9 5.9 5.8 5.8 5.8 5.8 5.7 5.7 5.8 5.6 5.6 5.6 5.5 5.4 5.4
5.3 5.3 5.3 5.3 5.5 5.6 5.6 5.9 6.3 6.4 6.6 6.7 6.7 6.7 6.7 6.7 6.6 6.5 6.5 6.3 6.2 6.1 6.0 5.9 5.9 5.8 5.8 5.9 5.8 5.8 5.8 5.9 5.8 5.7 5.8 5.7 5.8 5.9 5.7 5.7 5.7 5.7 5.6 5.6 5.5 5.6 5.6 5.5 5.2
5.2 5.2 5.3 5.2 5.4 5.1 5.6 5.5 6.2 6.5 6.5 6.6 6.6 6.5 6.5 6.5 6.4 6.3 6.2 6.1 6.0 5.9 5.8 5.7 5.7 5.5 5.6 5.6 5.6 5.7 5.8 5.8 5.8 5.7 5.8 5.7 5.8 5.9 5.8 5.7 5.7 5.8 5.7 5.7 5.7 5.7 5.6 5.3 5.3
5.3 5.3 5.1 4.9 4.6 4.8 5.7 5.7 6.5 6.5 6.6 6.6 6.5 6.4 6.4 6.4 6.4 6.3 6.1 5.9 5.8 5.6 5.5 5.3 5.2 5.2 5.3 5.4 5.5 5.6 5.7 5.7 5.8 5.7 5.7 5.7 5.8 5.9 6.0 6.0 5.9 6.0 5.9 5.8 5.7 5.7 5.7 5.5 5.5
5.3 5.3 5.3 5.7 3.9 5.0 5.5 6.0 6.7 6.5 6.5 6.5 6.5 6.4 6.2 6.2 6.3 6.3 6.2 6.2 6.0 5.8 5.5 5.3 5.3 5.4 5.3 5.3 5.3 5.5 5.6 5.7 5.6 5.6 5.7 5.8 5.9 5.9 6.0 6.1 6.3 6.2 6.1 5.9 5.8 5.8 5.6 5.5 5.4
5.3 5.3 5.4 5.3 4.8 4.8 5.8 6.4 6.6 6.6 6.6 6.6 6.5 6.3 6.3 6.4 6.4 6.3 6.3 6.3 6.2 6.0 5.9 5.8 5.8 5.8 5.7 5.7 5.6 5.6 5.5 5.5 5.6 5.6 5.7 5.7 5.8 5.9 6.0 6.2 6.3 6.3 6.3 6.1 5.9 5.8 5.7 5.5 5.5
5.2 5.3 5.3 5.3 4.5 5.3 5.6 6.2 7.2 7.1 6.9 6.7 6.4 6.3 6.3 6.3 6.3 6.3 6.3 6.3 6.2 6.2 6.0 5.9 5.9 5.9 5.8 5.8 5.9 5.8 5.6 5.5 5.5 5.6 5.5 5.6 5.8 5.8 6.1 6.0 6.2 6.3 6.4 6.3 6.1 6.0 5.8 5.6 5.5
5.3 5.2 5.4 5.4 5.3 4.3 4.0 6.5 7.3 7.1 7.0 6.7 6.5 6.5 6.5 6.5 6.4 6.3 6.4 6.3 6.2 6.1 6.1 6.1 6.0 6.1 6.1 6.0 6.0 6.0 5.8 5.7 5.5 5.5 5.4 5.4 5.6 5.6 5.8 6.1 6.2 6.2 6.3 6.3 6.3 6.2 5.9 5.9 5.7
5.4 5.4 5.5 5.7 5.3 5.2 5.1 7.0 7.1 7.0 6.9 6.7 6.6 6.6 6.6 6.5 6.4 6.4 6.5 6.4 6.3 6.3 6.2 6.1 6.1 6.1 6.0 5.9 5.9 5.9 5.8 5.6 5.4 5.3 5.4 5.3 5.4 5.5 5.6 5.8 6.0 6.0 6.1 6.1 6.2 6.2 6.2 6.1 6.0
Wind_Speed
8 10 3 4 4 5 1 1 2 2 2 3 2 6 6 3 2 2 2 6 10 9 8 10 8 8 6 6 2 4 6 5 5 8 7 10 12 11 11 11 13 13 14 15 15 15 16 17 16
7 2 4 2 5 3 3 1 2 1 5 7 6 3 5 1 1 4 6 6 13 12 10 9 9 8 6 6 2 5 4 3 5 6 7 10 11 9 11 11 12 13 14 14 14 16 16 16 16
2 4 3 4 3 2 3 2 3 3 6 1 3 5 2 3 1 8 3 12 13 13 11 9 9 8 7 6 5 4 5 3 5 4 6 9 9 11 12 12 12 13 14 14 14 15 15 15 15
3 4 4 4 2 0 2 4 3 4 3 5 4 5 2 3 7 6 11 16 12 12 12 10 10 9 8 6 4 4 3 3 4 3 7 8 9 9 11 12 12 13 13 13 13 14 16 14 13
4 3 4 3 1 1 1 4 6 2 3 2 1 3 1 2 4 9 10 13 9 10 11 11 11 9 8 6 5 4 3 3 3 3 5 6 8 9 10 11 12 12 12 12 12 13 13 13 14
4 3 4 1 1 1 1 4 4 3 2 3 5 4 4 2 8 7 8 8 14 13 11 11 11 10 8 7 5 5 4 3 2 1 4 4 6 8 8 9 10 11 12 12 13 11 13 14 14
5 3 2 3 4 0 3 6 4 4 4 3 8 5 3 2 7 8 7 11 12 15 14 9 9 10 9 7 6 5 4 3 3 3 3 3 5 6 6 7 8 9 10 10 11 12 12 12 13
4 4 3 1 4 4 4 4 4 4 2 3 5 4 4 6 8 7 5 6 8 11 13 12 9 8 6 7 7 6 5 4 4 5 3 2 4 3 5 4 5 6 8 9 10 10 12 12 13
3 4 2 4 6 3 4 3 1 2 6 1 1 5 1 11 10 7 4 2 2 4 8 13 13 10 10 9 8 7 6 6 5 3 2 3 3 3 2 3 5 7 7 8 9 9 11 10 11
4 4 6 3 2 2 4 3 7 3 2 2 2 2 4 10 9 10 8 9 6 6 6 11 13 14 12 11 9 8 6 5 4 3 3 3 3 3 4 3 4 7 6 7 7 8 11 10 8
2 3 4 3 2 3 4 0 4 6 4 7 8 6 9 6 8 10 10 9 14 8 4 10 14 16 14 11 11 9 8 8 7 6 5 3 2 4 3 2 3 4 6 6 8 8 9 9 6
3 1 2 2 0 1 3 3 3 7 7 5 9 9 11 13 14 14 13 10 8 8 9 9 17 15 17 16 13 14 12 10 9 9 7 5 4 3 3 2 2 2 3 4 5 6 6 7 6
2 1 1 1 1 1 0 4 6 7 8 3 8 9 14 14 13 9 10 7 7 8 8 8 16 15 19 16 15 13 13 12 13 11 8 7 5 5 4 4 3 3 2 2 4 5 6 6 7
1 2 1 2 1 1 2 2 2 3 6 6 9 11 10 12 16 6 6 9 9 8 8 8 11 18 18 16 17 16 15 15 12 12 13 11 8 7 6 5 5 5 4 3 3 3 4 5 5
2 1 2 3 2 2 3 5 7 3 5 8 9 8 8 11 7 13 14 11 10 8 8 9 8 17 17 18 19 18 18 16 15 16 15 12 11 10 8 6 6 8 6 5 4 4 4 4 5
3 4 3 2 4 0 3 7 4 5 9 9 9 8 9 11 13 11 9 9 9 8 10 9 12 13 15 15 17 18 17 18 17 16 16 15 15 13 10 9 9 9 7 5 4 3 3 3 2
6 1 2 6 6 2 1 7 3 4 6 8 9 9 9 8 9 10 10 10 9 11 9 9 9 10 13 15 16 17 17 17 19 17 17 17 17 15 14 12 11 9 7 5 4 1 1 2 3
3 1 3 4 2 1 3 12 9 6 9 11 9 8 9 9 17 12 11 9 9 8 9 10 9 10 11 8 6 6 8 13 17 18 19 19 19 18 16 13 12 9 6 4 3 3 2 3 3
2 2 3 4 1 2 4 8 14 8 5 8 9 9 10 12 8 8 8 8 8 7 8 11 10 10 6 2 3 3 4 4 5 17 21 21 21 20 18 15 12 11 5 4 5 2 2 2 1
1 1 4 4 1 3 5 10 6 2 4 7 9 9 11 7 7 9 9 8 10 11 11 9 12 10 10 7 3 3 3 4 5 14 19 23 22 21 19 17 12 12 4 5 4 3 1 2 2
0 1 1 2 6 0 6 7 6 3 3 3 5 7 6 11 11 9 9 11 8 10 12 13 14 12 11 10 3 2 2 1 1 4 4 16 23 23 22 19 16 13 11 5 5 5 6 3 2
2 2 1 2 4 1 3 2 5 5 8 4 6 6 7 8 7 7 8 8 10 15 8 10 11 12 11 9 9 8 9 9 6 5 6 10 20 20 21 19 18 15 12 6 5 8 5 3 4
2 2 2 2 2 2 4 3 7 4 5 4 6 6 7 7 8 9 9 10 10 7 9 9 8 8 9 11 14 10 12 9 5 3 6 6 10 19 19 19 17 14 12 10 8 6 6 5 4
4 3 5 4 2 2 2 3 5 3 3 3 4 6 6 6 6 8 8 7 8 5 7 7 8 11 9 10 12 13 15 13 6 6 6 6 5 7 15 17 17 17 14 11 10 12 8 7 5
4 4 2 2 2 5 1 2 8 4 5 4 4 7 7 6 5 6 8 7 7 8 8 7 8 13 10 12 11 15 16 14 13 12 8 8 6 5 10 15 11 11 16 16 14 8 9 8 7
4 5 4 4 4 3 1 5 5 5 5 4 5 7 7 7 5 6 8 8 8 8 9 9 9 14 9 10 15 12 13 10 10 11 9 8 8 9 11 13 15 17 16 16 15 8 8 7 8
3 3 2 5 2 2 3 7 8 4 4 3 6 6 8 8 7 7 7 7 8 8 9 8 8 11 9 10 8 10 10 12 12 12 9 9 8 8 7 13 9 14 15 15 13 9 10 9 9
1 3 2 2 3 3 4 5 5 6 8 6 6 7 7 6 7 7 7 7 6 7 7 7 8 10 10 8 8 9 10 10 11 8 10 11 10 8 7 9 10 9 10 12 10 9 9 9 8
2 1 3 3 3 4 1 6 7 9 9 10 8 8 7 7 7 6 6 5 7 6 7 8 8 8 8 8 6 7 7 8 7 9 9 10 8 9 10 10 10 10 10 9 9 10 10 11 10
2 4 5 5 4 1 3 6 3 6 7 8 8 7 5 5 5 4 4 5 4 5 5 7 7 7 8 6 6 7 6 6 7 9 9 8 10 7 10 9 9 10 10 9 11 11 11 11 12
Wind_Direction
324 345 77 42 53 62 28 335 269 60 53 344 8 86 121 53 92 189 285 168 150 152 166 139 155 126 141 120 116 87 57 56 26 45 39 43 46 40 40 42 44 45 45 47 39 39 42 42 41
325 6 40 80 80 58 283 294 81 330 144 133 93 92 41 71 118 107 110 214 157 150 140 143 144 148 145 136 133 76 77 62 59 43 27 46 45 34 45 45 45 47 50 49 42 43 42 45 43
358 45 74 85 99 156 200 187 155 99 164 173 90 60 122 170 49 161 210 156 151 144 146 162 148 155 139 157 100 104 86 66 63 51 46 43 45 39 41 41 42 45 49 54 51 49 52 54 42
46 12 37 75 80 238 204 171 188 145 127 68 123 66 27 243 157 190 145 146 139 150 152 159 158 159 157 152 131 114 102 75 61 42 62 48 47 44 42 44 46 46 49 53 53 53 57 54 50
36 56 56 72 10 7 60 170 160 130 110 98 147 165 351 8 70 132 141 147 142 154 160 159 168 164 167 150 145 137 118 93 73 52 65 52 47 47 40 40 43 46 44 47 53 52 51 52 61
40 89 64 157 198 355 242 170 172 125 123 152 80 117 198 335 135 165 142 151 157 153 161 164 175 173 172 163 158 154 145 126 110 97 73 64 48 40 37 36 41 41 39 37 40 49 46 48 54
104 78 124 121 168 309 215 142 163 166 142 221 151 127 286 203 177 158 153 155 159 161 162 176 169 177 180 174 170 169 164 156 158 160 111 105 66 41 28 29 30 34 34 34 39 46 46 48 51
103 91 99 82 188 245 161 160 138 155 177 98 161 191 225 213 153 131 134 155 159 166 169 171 170 177 170 181 179 182 182 174 156 161 149 123 20 24 28 29 20 25 16 26 36 40 43 39 45
112 63 134 182 158 238 169 136 37 64 118 83 190 155 309 139 124 122 118 105 150 187 186 181 183 185 179 182 185 191 196 190 174 170 218 239 278 323 352 354 2 6 19 21 25 28 24 27 31
75 99 203 188 189 212 187 184 167 141 133 228 255 49 98 130 152 158 167 185 193 199 209 195 191 192 191 192 197 183 197 203 200 236 242 278 235 240 261 291 343 0 19 15 17 18 23 26 26
131 148 174 202 175 182 174 251 173 134 231 220 206 162 150 149 174 177 191 189 194 200 195 194 202 198 195 198 200 201 209 219 227 231 231 224 241 247 266 276 334 4 11 9 9 12 16 13 8
83 114 174 177 188 118 172 127 224 191 224 228 207 150 161 172 188 192 198 195 181 191 200 197 202 201 205 205 201 207 210 214 224 227 224 218 211 202 219 249 289 321 356 354 1 358 355 0 2
95 190 160 138 135 201 194 240 232 243 239 62 126 147 177 188 199 209 205 199 183 200 201 203 197 201 208 203 209 212 219 216 222 226 227 222 216 223 239 248 248 254 267 312 334 341 341 348 346
119 157 302 218 243 255 231 259 28 282 150 134 156 180 189 194 202 195 199 208 198 206 209 199 200 200 201 201 208 215 219 224 223 227 227 226 226 221 225 239 249 265 268 288 299 312 320 324 331
90 340 331 233 223 234 154 275 234 218 145 168 193 203 202 219 194 211 210 210 198 209 208 201 201 199 195 203 206 214 220 221 219 226 225 225 224 223 224 229 240 248 249 266 287 308 306 314 324
39 51 17 247 155 317 89 273 264 157 153 200 213 218 220 226 219 221 213 212 198 196 203 204 202 198 202 206 208 213 219 218 221 227 224 227 227 224 218 218 229 236 238 253 278 304 314 306 309
12 244 338 324 190 120 159 270 243 159 193 217 218 222 228 245 248 237 224 216 205 202 202 206 196 196 203 211 212 213 219 218 223 226 222 227 228 227 223 223 235 236 232 245 244 255 207 288 297
216 297 282 257 305 197 251 267 280 246 199 226 226 229 234 239 238 230 226 218 215 201 203 207 202 204 199 195 204 223 226 230 228 226 228 230 230 228 225 231 235 229 228 243 244 246 246 245 276
145 191 250 267 66 301 251 276 287 301 213 237 236 229 233 234 251 231 224 216 216 209 198 204 192 202 167 158 178 218 217 214 223 228 232 233 233 231 226 227 227 220 209 223 231 254 265 314 336
214 238 282 298 16 7 341 300 288 287 244 220 234 240 236 241 241 241 231 210 206 212 208 203 210 199 198 199 189 176 173 217 209 219 228 231 231 231 224 218 217 215 207 227 222 197 236 254 211
210 204 283 255 324 248 328 309 342 303 311 246 251 242 239 225 233 240 226 220 205 213 204 205 207 205 203 200 134 109 78 299 209 226 228 226 225 227 223 220 217 216 205 211 210 195 190 231 300
309 155 86 360 34 195 20 261 311 326 315 289 304 289 264 241 240 243 233 225 211 225 204 206 203 204 205 182 199 195 216 223 220 203 217 218 218 223 222 220 217 219 213 209 210 208 202 166 221
227 46 15 41 45 25 340 79 268 342 329 309 310 307 280 245 233 234 234 229 223 209 205 206 201 205 207 197 206 207 222 231 231 211 221 222 218 221 220 216 214 216 211 218 205 198 196 193 188
145 88 45 50 51 22 274 120 283 228 214 293 300 307 299 290 249 242 251 244 238 213 201 194 200 222 208 201 206 210 221 228 220 226 225 227 219 221 222 215 212 217 213 210 214 213 203 203 205
82 66 0 5 7 214 349 40 239 248 238 223 273 294 288 284 273 259 254 248 242 224 218 205 206 238 216 209 210 214 224 226 228 231 226 220 219 218 226 210 210 216 218 217 213 208 215 206 207
174 160 160 222 190 239 317 233 245 216 279 240 278 278 300 292 274 262 255 250 248 240 224 212 213 238 221 207 223 220 223 226 232 231 225 226 221 220 217 209 214 218 214 214 209 213 221 209 223
172 203 181 106 21 37 253 290 301 205 255 273 288 315 292 297 298 284 282 259 262 258 247 226 226 240 238 220 221 220 222 221 229 229 222 229 222 221 209 206 206 214 214 213 208 219 219 213 215
180 163 76 18 164 238 286 275 234 214 222 239 256 263 282 298 303 293 278 270 262 253 257 244 234 238 247 228 213 224 220 222 228 224 219 222 228 216 211 208 212 213 213 214 206 219 221 210 219
142 218 61 118 128 162 250 265 212 204 197 202 227 246 264 288 293 297 298 289 270 270 267 265 258 253 255 239 227 229 229 220 220 223 227 223 223 209 216 215 217 217 216 212 210 219 219 213 225
216 206 153 122 214 82 142 274 258 217 201 184 212 235 264 259 275 293 296 304 300 288 286 276 280 267 258 253 229 240 240 228 227 231 230 218 223 213 217 213 214 218 217 213 214 221 222 216 224